FW3849 Weather Reports


time (UTC)temp
F
wind
direction
speed
knots
gust
knots
rain 1hr
in
rain 24hr
in
rain mn
in
humidity
%
barometer
mb
20260906052029 82 175 2.6 4.3 0.00 0.00 0.00 47 1011.4
20260906051529 82 187 1.7 4.3 0.00 0.00 0.00 46 1011.3
20260906051028 83 187 1.7 4.3 0.00 0.00 0.00 46 1011.5
20260906050527 83 187 1.7 4.3 0.00 0.00 0.00 46 1011.5
20260906050026 83 185 2.6 5.2 0.00 0.00 0.00 46 1011.5
20260906045528 83 175 2.6 5.2 0.00 0.00 0.00 46 1011.5
20260906045026 83 155 2.6 5.2 0.00 0.00 0.00 46 1011.4
20260906044527 83 177 2.6 5.2 0.00 0.00 0.00 46 1011.4
20260906043525 83 170 1.7 4.3 0.00 0.00 0.00 45 1011.4
20260906043027 83 171 2.6 4.3 0.00 0.00 0.00 45 1011.3
20260906042626 83 171 1.7 4.3 0.00 0.00 0.00 45 1011.3
20260906042025 84 171 1.7 4.3 0.00 0.00 0.00 45 1011.2
20260906041530 84 177 1.7 4.3 0.00 0.00 0.00 45 1011.1
20260906041025 84 179 2.6 4.3 0.00 0.00 0.00 45 1011.2
20260906040524 84 179 2.6 7.8 0.00 0.00 0.00 45 1011.1
20260906040034 84 156 2.6 7.8 0.00 0.00 0.00 44 1011.1
20260906035533 84 207 3.5 6.1 0.00 0.00 0.00 44 1011.2
20260906035024 84 173 2.6 7.0 0.00 0.00 0.00 44 1011.2
20260906034529 85 189 3.5 7.8 0.00 0.00 0.00 44 1011.1
20260906034123 85 191 3.5 7.8 0.00 0.00 0.00 44 1011.1
20260906033523 85 191 4.3 7.8 0.00 0.00 0.00 43 1011.0
20260906033024 85 191 3.5 8.7 0.00 0.00 0.00 43 1010.9
20260906032523 85 196 3.5 8.7 0.00 0.00 0.00 43 1010.9
20260906032026 85 186 4.3 10.4 0.00 0.00 0.00 43 1010.9
20260906031537 85 189 6.1 10.4 0.00 0.00 0.00 43 1010.8
20260906031023 85 193 3.5 8.7 0.00 0.00 0.00 42 1010.8
20260906030522 86 193 5.2 8.7 0.00 0.00 0.00 42 1010.5
20260906030022 86 192 4.3 7.8 0.00 0.00 0.00 42 1010.6
20260906025528 86 187 3.5 8.7 0.00 0.00 0.00 42 1010.5
20260906025024 86 198 4.3 8.7 0.00 0.00 0.00 41 1010.4
20260906024527 86 174 2.6 7.8 0.00 0.00 0.00 41 1010.3
20260906023524 86 198 5.2 9.6 0.00 0.00 0.00 41 1009.9
20260906023023 87 185 6.1 9.6 0.00 0.00 0.00 41 1009.8
20260906022524 87 193 5.2 10.4 0.00 0.00 0.00 40 1009.7
20260906022023 87 190 4.3 11.3 0.00 0.00 0.00 40 1009.5
20260906021523 87 194 7.0 13.0 0.00 0.00 0.00 40 1009.3
20260906021024 87 204 7.8 13.0 0.00 0.00 0.00 40 1009.1
20260906020522 87 197 5.2 13.0 0.00 0.00 0.00 39 1009.1
20260906020022 88 197 7.8 12.2 0.00 0.00 0.00 39 1008.9
20260906015522 88 202 6.1 12.2 0.00 0.00 0.00 38 1008.9
20260906015022 88 198 5.2 11.3 0.00 0.00 0.00 38 1008.9
20260906014525 89 202 6.1 11.3 0.00 0.00 0.00 38 1008.8
20260906013523 89 198 7.8 16.5 0.00 0.00 0.00 37 1008.6
20260906013021 89 165 9.6 16.5 0.00 0.00 0.00 37 1008.6
20260906012520 90 188 10.4 16.5 0.00 0.00 0.00 36 1008.4
20260906012024 91 191 7.8 16.5 0.00 0.00 0.00 35 1008.3
20260906011523 92 183 9.6 15.6 0.00 0.00 0.00 33 1008.3
20260906011020 93 150 8.7 20.0 0.00 0.00 0.00 32 1008.2
20260906010519 95 166 6.1 17.4 0.00 0.00 0.00 27 1008.0
20260906010020 95 174 4.3 9.6 0.00 0.00 0.00 27 1007.7
20260906005518 95 196 3.5 10.4 0.00 0.00 0.00 26 1007.8
20260906005019 95 173 4.3 11.3 0.00 0.00 0.00 26 1007.8
20260906004519 95 162 6.1 11.3 0.00 0.00 0.00 25 1007.7
20260906003519 96 147 3.5 7.0 0.00 0.00 0.00 25 1007.8
20260906003023 96 156 3.5 5.2 0.00 0.00 0.00 24 1007.8
20260906002518 96 169 1.7 7.8 0.00 0.00 0.00 25 1007.8
20260906002018 96 158 3.5 8.7 0.00 0.00 0.00 25 1007.7
20260906001518 96 192 5.2 10.4 0.00 0.00 0.00 25 1007.7
20260906001023 96 160 6.1 10.4 0.00 0.00 0.00 25 1007.6
20260906000518 97 233 6.1 8.7 0.00 0.00 0.00 25 1007.6
20260906000018 97 216 4.3 7.8 0.00 0.00 0.00 25 1007.7
20260905235518 97 208 4.3 8.7 0.00 0.00 0.00 25 1007.7
20260905235024 97 191 4.3 8.7 0.00 0.00 0.00 25 1007.6
20260905234517 96 204 6.1 9.6 0.00 0.00 0.00 25 1007.7
20260905233518 96 209 6.1 10.4 0.00 0.00 0.00 25 1007.7
20260905233018 97 191 6.1 10.4 0.00 0.00 0.00 25 1007.6
20260905232517 96 195 5.2 9.6 0.00 0.00 0.00 25 1007.6
20260905232017 96 197 3.5 9.6 0.00 0.00 0.00 26 1007.5
20260905231522 97 216 6.1 9.6 0.00 0.00 0.00 25 1007.5
20260905231021 96 220 5.2 11.3 0.00 0.00 0.00 26 1007.3
20260905230516 96 203 6.1 11.3 0.00 0.00 0.00 26 1007.5
20260905230016 96 197 7.0 12.2 0.00 0.00 0.00 26 1007.5
20260905225515 96 209 7.0 9.6 0.00 0.00 0.00 26 1007.6
20260905225017 96 204 5.2 9.6 0.00 0.00 0.00 26 1007.7
20260905224519 96 191 6.1 10.4 0.00 0.00 0.00 26 1007.7
20260905224114 96 205 7.0 11.3 0.00 0.00 0.00 27 1007.6
20260905223514 96 215 7.0 11.3 0.00 0.00 0.00 27 1007.7
20260905223015 96 205 6.1 11.3 0.00 0.00 0.00 27 1007.7
20260905222515 96 225 7.8 11.3 0.00 0.00 0.00 27 1007.6
20260905222014 96 214 8.7 12.2 0.00 0.00 0.00 27 1007.7
20260905221514 96 209 7.8 12.2 0.00 0.00 0.00 27 1007.6
20260905221014 96 203 7.0 12.2 0.00 0.00 0.00 27 1007.7
20260905220516 96 224 7.0 11.3 0.00 0.00 0.00 27 1007.6
20260905220014 96 214 7.0 13.0 0.00 0.00 0.00 28 1007.7
20260905215514 96 213 8.7 13.0 0.00 0.00 0.00 27 1007.6
20260905215012 96 205 7.0 11.3 0.00 0.00 0.00 28 1007.7
20260905214512 96 218 7.0 12.2 0.00 0.00 0.00 27 1007.7
20260905213513 97 204 9.6 13.9 0.00 0.00 0.00 27 1007.8
20260905213013 97 211 9.6 13.9 0.00 0.00 0.00 26 1007.8
20260905212512 98 211 5.2 11.3 0.00 0.00 0.00 26 1007.9
20260905212012 98 152 4.3 9.6 0.00 0.00 0.00 24 1008.0
20260905211509 97 72 0.9 9.6 0.00 0.00 0.00 25 1008.1
20260905211010 97 122 3.5 9.6 0.00 0.00 0.00 26 1008.3
20260905210508 97 137 3.5 11.3 0.00 0.00 0.00 25 1008.3
20260905210008 97 78 5.2 11.3 0.00 0.00 0.00 25 1008.3
20260905205509 97 203 2.6 7.8 0.00 0.00 0.00 27 1008.3
20260905205007 96 175 3.5 7.8 0.00 0.00 0.00 27 1008.4
20260905204507 97 198 4.3 7.0 0.00 0.00 0.00 27 1008.3
20260905203504 96 162 1.7 10.4 0.00 0.00 0.00 28 1008.6
20260905203003 96 156 4.3 10.4 0.00 0.00 0.00 29 1008.8
20260905202505 97 162 6.1 10.4 0.00 0.00 0.00 28 1008.9
20260905202003 98 163 4.3 8.7 0.00 0.00 0.00 27 1008.8
20260905201501 98 182 2.6 7.0 0.00 0.00 0.00 27 1009.0
20260905201104 97 21 2.6 5.2 0.00 0.00 0.00 28 1009.0
20260905200601 96 183 2.6 8.7 0.00 0.00 0.00 28 1009.2
20260905200127 96 212 5.2 8.7 0.00 0.00 0.00 27 1009.2
20260905195655 95 187 3.5 8.7 0.00 0.00 0.00 29 1009.3
20260905195053 95 99 5.2 8.7 0.00 0.00 0.00 28 1009.5
20260905194553 95 87 3.5 12.2 0.00 0.00 0.00 30 1009.7
20260905194152 95 168 7.0 12.2 0.00 0.00 0.00 33 1009.8
20260905193552 94 208 4.3 10.4 0.00 0.00 0.00 34 1009.8
20260905193051 94 200 5.2 10.4 0.00 0.00 0.00 34 1010.0
20260905192549 94 186 5.2 9.6 0.00 0.00 0.00 34 1010.1
20260905192048 94 241 1.7 10.4 0.00 0.00 0.00 34 1010.2
20260905191546 94 227 1.7 9.6 0.00 0.00 0.00 34 1010.3
20260905191045 94 196 2.6 9.6 0.00 0.00 0.00 35 1010.3
20260905190542 93 179 0.9 10.4 0.00 0.00 0.00 35 1010.4
20260905190050 93 162 5.2 10.4 0.00 0.00 0.00 36 1010.6
20260905185545 93 272 2.6 8.7 0.00 0.00 0.00 36 1010.6
20260905185039 93 194 5.2 8.7 0.00 0.00 0.00 36 1010.8
20260905184539 93 198 0.0 8.7 0.00 0.00 0.00 36 1010.9
20260905184136 92 204 4.3 11.3 0.00 0.00 0.00 36 1010.8
20260905183536 92 214 3.5 11.3 0.00 0.00 0.00 36 1011.0
20260905183035 92 151 3.5 11.3 0.00 0.00 0.00 37 1011.1
20260905182534 91 196 2.6 11.3 0.00 0.00 0.00 37 1011.2
20260905182037 92 198 5.2 11.3 0.00 0.00 0.00 37 1011.3
20260905181535 92 117 4.3 7.8 0.00 0.00 0.00 37 1011.4
20260905181134 92 61 3.5 9.6 0.00 0.00 0.00 38 1011.4
20260905180531 91 177 3.5 9.6 0.00 0.00 0.00 39 1011.4
20260905180044 91 127 4.3 10.4 0.00 0.00 0.00 40 1011.5
20260905175529 90 171 4.3 10.4 0.00 0.00 0.00 41 1011.5
20260905175029 90 164 1.7 11.3 0.00 0.00 0.00 41 1011.6
20260905174528 90 204 6.1 9.6 0.00 0.00 0.00 41 1011.7
20260905174127 90 230 4.3 13.0 0.00 0.00 0.00 43 1011.7
20260905173528 89 156 4.3 13.0 0.00 0.00 0.00 43 1011.6
20260905173025 89 154 7.0 13.0 0.00 0.00 0.00 44 1011.6
20260905172525 89 197 5.2 13.0 0.00 0.00 0.00 44 1011.7
20260905172025 89 227 7.0 13.0 0.00 0.00 0.00 44 1011.8
20260905171532 89 191 4.3 8.7 0.00 0.00 0.00 44 1011.7
20260905171024 88 238 3.5 11.3 0.00 0.00 0.00 44 1011.7
20260905170523 89 201 7.0 11.3 0.00 0.00 0.00 44 1011.8
20260905170022 88 177 2.6 8.7 0.00 0.00 0.00 46 1011.8
20260905165525 88 150 6.1 9.6 0.00 0.00 0.00 46 1011.9
20260905165020 87 186 5.2 9.6 0.00 0.00 0.00 46 1011.9
20260905164519 87 179 5.2 9.6 0.00 0.00 0.00 47 1011.9
20260905164119 86 184 3.5 10.4 0.00 0.00 0.00 47 1011.8
20260905163519 86 185 4.3 10.4 0.00 0.00 0.00 47 1011.9
20260905163019 86 140 3.5 9.6 0.00 0.00 0.00 47 1011.9
20260905162517 86 182 5.2 9.6 0.00 0.00 0.00 47 1011.9
20260905162020 85 187 4.3 8.7 0.00 0.00 0.00 48 1011.9
20260905161523 85 210 3.5 10.4 0.00 0.00 0.00 49 1012.0
20260905161016 85 238 7.0 10.4 0.00 0.00 0.00 49 1012.0
20260905160517 85 139 3.5 9.6 0.00 0.00 0.00 50 1012.0
20260905160016 84 198 5.2 9.6 0.00 0.00 0.00 51 1012.1
20260905155513 84 212 5.2 9.6 0.00 0.00 0.00 51 1012.1
20260905155011 84 162 5.2 9.6 0.00 0.00 0.00 52 1012.1
20260905154510 83 214 6.1 10.4 0.00 0.00 0.00 52 1012.1
20260905154109 83 196 3.5 9.6 0.00 0.00 0.00 52 1012.1
20260905153509 83 218 4.3 10.4 0.00 0.00 0.00 52 1012.0
20260905153007 83 206 3.5 10.4 0.00 0.00 0.00 53 1012.1
20260905152507 82 200 3.5 9.6 0.00 0.00 0.00 54 1012.1
20260905152006 82 219 7.0 9.6 0.00 0.00 0.00 54 1012.1
20260905151506 82 194 6.1 11.3 0.00 0.00 0.00 54 1012.1
20260905151005 82 241 6.1 11.3 0.00 0.00 0.00 55 1012.1
20260905150506 82 199 5.2 9.6 0.00 0.00 0.00 55 1012.1
20260905150005 81 160 3.5 8.7 0.00 0.00 0.00 55 1012.2
20260905145506 81 214 5.2 8.7 0.00 0.00 0.00 55 1012.2
20260905145005 81 157 4.3 9.6 0.00 0.00 0.00 56 1012.2
20260905144504 80 169 5.2 11.3 0.00 0.00 0.00 56 1012.3
20260905144105 80 202 4.3 10.4 0.00 0.00 0.00 56 1012.3
20260905143506 80 198 4.3 10.4 0.00 0.00 0.00 56 1012.2
20260905143007 80 171 5.2 10.4 0.00 0.00 0.00 57 1012.3
20260905142508 79 199 5.2 12.2 0.00 0.00 0.00 58 1012.3
20260905142005 79 189 7.0 12.2 0.00 0.00 0.00 57 1012.2
20260905141511 79 176 4.3 12.2 0.00 0.00 0.00 58 1012.2
20260905141004 79 193 7.0 12.2 0.00 0.00 0.00 58 1012.1
20260905140507 79 199 5.2 11.3 0.00 0.00 0.00 58 1012.0
20260905140009 79 183 6.1 11.3 0.00 0.00 0.00 57 1012.1
20260905135504 79 195 5.2 8.7 0.00 0.00 0.00 57 1012.0
20260905135002 78 193 3.5 7.8 0.00 0.00 0.00 57 1011.9
20260905134501 78 181 4.3 7.8 0.00 0.00 0.00 58 1011.9
20260905134101 78 127 3.5 7.0 0.00 0.00 0.00 58 1011.9
20260905133059 78 171 2.6 6.1 0.00 0.00 0.00 58 1011.7
20260905132600 78 159 2.6 7.0 0.00 0.00 0.00 58 1011.6
20260905132059 77 182 1.7 6.1 0.00 0.00 0.00 59 1011.7
20260905131558 77 188 2.6 6.1 0.00 0.00 0.00 59 1011.7
20260905131057 77 168 1.7 4.3 0.00 0.00 0.00 59 1011.5
20260905130557 77 167 2.6 4.3 0.00 0.00 0.00 59 1011.4
20260905130056 77 166 1.7 5.2 0.00 0.00 0.00 59 1011.3
20260905125555 77 175 2.6 5.2 0.00 0.00 0.00 59 1011.3
20260905125055 77 175 0.9 5.2 0.00 0.00 0.00 59 1011.3
20260905124557 77 175 1.7 5.2 0.00 0.00 0.00 59 1011.2
20260905124054 77 173 1.7 3.5 0.00 0.00 0.00 59 1011.2
20260905123053 77 173 1.7 3.5 0.00 0.00 0.00 59 1011.1
20260905122552 77 173 0.9 3.5 0.00 0.00 0.00 59 1011.0
20260905122054 77 173 2.6 5.2 0.00 0.00 0.00 59 1010.9
20260905121553 77 173 2.6 5.2 0.00 0.00 0.00 59 1010.8
20260905121053 77 174 2.6 5.2 0.00 0.00 0.00 59 1010.8
20260905120550 77 180 2.6 7.0 0.00 0.00 0.00 58 1010.8
20260905120100 77 183 2.6 7.0 0.00 0.00 0.00 58 1010.8
20260905115549 77 184 3.5 6.1 0.00 0.00 0.00 58 1010.8
20260905115051 77 180 2.6 6.1 0.00 0.00 0.00 58 1010.7
20260905114601 77 175 3.5 6.1 0.00 0.00 0.00 58 1010.8
20260905114049 77 170 1.7 6.1 0.00 0.00 0.00 57 1010.8
20260905113056 77 170 2.6 6.1 0.00 0.00 0.00 57 1010.7
20260905112549 77 185 2.6 5.2 0.00 0.00 0.00 57 1010.7
20260905112049 77 186 3.5 5.2 0.00 0.00 0.00 57 1010.7
20260905111634 77 188 3.5 5.2 0.00 0.00 0.00 57 1010.6
20260905111048 77 190 3.5 5.2 0.00 0.00 0.00 56 1010.5
20260905110547 78 165 2.6 4.3 0.00 0.00 0.00 56 1010.6
20260905110047 78 164 1.7 4.3 0.00 0.00 0.00 56 1010.6
20260905105547 78 164 1.7 4.3 0.00 0.00 0.00 56 1010.5
20260905105047 78 164 0.9 4.3 0.00 0.00 0.00 56 1010.4
20260905104548 78 164 0.9 3.5 0.00 0.00 0.00 56 1010.3
20260905104046 78 164 1.7 3.5 0.00 0.00 0.00 55 1010.3
20260905103046 78 164 1.7 3.5 0.00 0.00 0.00 55 1010.4
20260905102549 78 164 0.9 3.5 0.00 0.00 0.00 55 1010.3
20260905102044 78 164 0.9 3.5 0.00 0.00 0.00 54 1010.5
20260905101544 78 164 0.9 3.5 0.00 0.00 0.00 54 1010.4
20260905101043 79 164 1.7 3.5 0.00 0.00 0.00 54 1010.4
20260905100542 79 164 1.7 4.3 0.00 0.00 0.00 54 1010.4
20260905100041 79 164 1.7 5.2 0.00 0.00 0.00 54 1010.3
20260905095540 79 164 2.6 5.2 0.00 0.00 0.00 53 1010.3
20260905095040 79 165 1.7 6.1 0.00 0.00 0.00 53 1010.3
20260905094539 79 164 3.5 7.8 0.00 0.00 0.00 53 1010.3
20260905094042 80 162 3.5 8.7 0.00 0.00 0.00 52 1010.3
20260905093042 80 184 3.5 7.8 0.00 0.00 0.00 52 1010.2
20260905092539 80 158 4.3 10.4 0.00 0.00 0.00 52 1010.1
20260905092038 80 193 4.3 7.8 0.00 0.00 0.00 52 1010.1
20260905091537 80 171 4.3 7.8 0.00 0.00 0.00 51 1010.1
20260905091037 80 171 3.5 7.8 0.00 0.00 0.00 51 1010.1
20260905090539 80 183 3.5 9.6 0.00 0.00 0.00 51 1010.0
20260905090037 80 164 5.2 9.6 0.00 0.00 0.00 51 1010.0
20260905085537 81 190 4.3 7.8 0.00 0.00 0.00 51 1010.2
20260905085036 81 187 3.5 7.8 0.00 0.00 0.00 51 1010.3
20260905084538 81 179 3.5 8.7 0.00 0.00 0.00 51 1010.3
20260905084037 81 206 3.5 7.0 0.00 0.00 0.00 51 1010.3
20260905083036 81 160 2.6 7.0 0.00 0.00 0.00 51 1010.3
20260905082536 81 166 2.6 7.0 0.00 0.00 0.00 51 1010.4
20260905082036 80 193 2.6 5.2 0.00 0.00 0.00 51 1010.5
20260905081536 80 187 2.6 5.2 0.00 0.00 0.00 51 1010.4
20260905081035 80 193 1.7 5.2 0.00 0.00 0.00 51 1010.5
20260905080535 80 198 2.6 7.0 0.00 0.00 0.00 51 1010.5
20260905080037 81 200 2.6 7.0 0.00 0.00 0.00 51 1010.4
20260905075536 81 187 2.6 10.4 0.00 0.00 0.00 51 1010.4
20260905075034 81 180 2.6 10.4 0.00 0.00 0.00 51 1010.4
20260905074534 81 165 1.7 5.2 0.00 0.00 0.00 51 1010.4
20260905074035 81 163 2.6 5.2 0.00 0.00 0.00 51 1010.6
20260905073038 81 168 2.6 5.2 0.00 0.00 0.00 51 1010.6
20260905072533 81 168 1.7 5.2 0.00 0.00 0.00 51 1010.6
20260905072033 81 145 1.7 4.3 0.00 0.00 0.00 51 1010.5
20260905071537 81 146 1.7 4.3 0.00 0.00 0.00 51 1010.5
20260905071032 81 146 1.7 4.3 0.00 0.00 0.00 51 1010.4
20260905070535 81 146 1.7 3.5 0.00 0.00 0.00 51 1010.4
20260905070046 81 146 0.9 4.3 0.00 0.00 0.00 51 1010.5
20260905065532 81 146 1.7 4.3 0.00 0.00 0.00 51 1010.4
20260905065031 81 146 1.7 3.5 0.00 0.00 0.00 51 1010.4
20260905064542 81 146 1.7 3.5 0.00 0.00 0.00 51 1010.4
20260905064030 81 146 1.7 3.5 0.00 0.00 0.00 50 1010.3
20260905063031 81 146 2.6 4.3 0.00 0.00 0.00 50 1010.2
20260905062530 81 145 1.7 4.3 0.00 0.00 0.00 50 1010.3
20260905062030 81 145 1.7 4.3 0.00 0.00 0.00 50 1010.2
20260905061529 81 153 1.7 3.5 0.00 0.00 0.00 49 1010.2
20260905061028 81 154 1.7 3.5 0.00 0.00 0.00 49 1010.2
20260905060528 82 154 0.9 3.5 0.00 0.00 0.00 49 1010.0
20260905060028 82 153 1.7 3.5 0.00 0.00 0.00 49 1010.2
20260905055529 82 153 0.9 3.5 0.00 0.00 0.00 49 1010.1
20260905055032 82 153 0.9 4.3 0.00 0.00 0.00 49 1010.0
20260905054535 82 153 1.7 5.2 0.00 0.00 0.00 49 1010.0
20260905054030 82 153 2.6 7.0 0.00 0.00 0.00 49 1010.1
20260905053025 82 159 3.5 5.2 0.00 0.00 0.00 49 1010.0
20260905052525 82 157 1.7 4.3 0.00 0.00 0.00 49 1010.0